Terminal Aerodrome Forecast
Issued by NWS

Home | Current Version | Previous Version | Text Only | Print | Product List | Glossary Off
Versions: 1 2 3 4 5 6 7 8 9 10 11 12 13 14 15 16 17 18 19 20 21 22

000
FTUS43 KICT 231415 AAA
TAFRSL
TAF AMD
KRSL 231415Z 2314/2412 18022G30KT P6SM SCT015
     FM231800 19022G30KT P6SM SCT050
     FM232300 18017G26KT P6SM BKN080
     FM240000 18013KT P6SM SKC=

USA.gov is the U.S. government's official web portal to all federal, state and local government web resources and services.